Weather History for K1A5 - January, 2011

Change the Weather History Date:

Thursday, January 27, 2011

  Actual Average (KTOC) Record (KTOC)
Temperature  
Mean Temperature 34 °F -  
Max Temperature 45 °F 52 °F 64 °F (2014)
Min Temperature 22 °F 30 °F 29 °F (2015)
Degree Days  
Heating Degree Days 32    
Moisture  
Dew Point 22 °F    
Average Humidity 70    
Maximum Humidity 88    
Minimum Humidity 37    
Precipitation  
Precipitation 0.00 in - - ()
Sea Level Pressure  
Sea Level Pressure 29.96 in    
Wind  
Wind Speed 3 mph (NNW)    
Max Wind Speed 10 mph    
Max Gust Speed -    
Visibility 10 miles    
Events      
Averages and records for this station are not official NWS values.
T = Trace of Precipitation, MM = Missing Value Source: NWS Daily Summary

Daily Weather History Graph

Daily Weather History Graph

Search for Another Location

Airport or City:

Trip Planner

Search our weather history database for the weather conditions in past years. The results will help you decide how hot, cold, wet, or windy it might be!

Date:

Astronomy

Jan. 27, 2011 Rise Set
Actual Time 7:36 AM EST 5:56 PM EST
Civil Twilight 7:09 AM EST 6:23 PM EST
Nautical Twilight 6:38 AM EST 6:54 PM EST
Astronomical Twilight 6:08 AM EST 7:24 PM EST
Moon 2:02 AM EST (1/27) 12:17 PM EST (1/27)
Length of Visible Light 11h 14m
Length of Day
10h 20m
Last Quarter, 37% of the Moon is Illuminated
Jan 27
Last Quarter
Feb 2
New
Feb 11
First Quarter
Feb 18
Full
Feb 24
Last Quarter

Hourly Weather History & Observations

Time (EST) Temp. Windchill Dew Point Humidity Pressure Visibility Wind Dir Wind Speed Gust Speed Precip Events Conditions
12:00 AM 28.9 °F 25.2 °F 21.4 °F 73% 29.97 in 10.0 mi North 3.5 mph - N/A   Clear
12:20 AM 28.4 °F - 21.4 °F 75% 29.97 in 10.0 mi Calm Calm - N/A   Clear
1:00 AM 27.3 °F - 21.0 °F 77% 29.97 in 10.0 mi Calm Calm - N/A   Clear
1:20 AM 27.5 °F 23.6 °F 21.2 °F 77% 29.97 in 10.0 mi NW 3.5 mph - N/A   Clear
1:40 AM 25.7 °F 21.5 °F 20.5 °F 81% 29.97 in 10.0 mi West 3.5 mph - N/A   Clear
2:00 AM 26.4 °F 19.8 °F 20.3 °F 78% 29.97 in 10.0 mi NNW 5.8 mph - N/A   Clear
2:20 AM 26.1 °F 21.9 °F 20.1 °F 78% 29.97 in 10.0 mi North 3.5 mph - N/A   Clear
2:40 AM 26.8 °F 21.4 °F 20.3 °F 77% 29.97 in 10.0 mi North 4.6 mph - N/A   Clear
3:20 AM 27.0 °F 23.0 °F 20.3 °F 76% 29.97 in 10.0 mi North 3.5 mph - N/A   Clear
3:40 AM 26.6 °F 20.0 °F 20.3 °F 77% 29.97 in 10.0 mi North 5.8 mph - N/A   Clear
4:00 AM 26.6 °F 19.1 °F 20.3 °F 77% 29.97 in 10.0 mi NNW 6.9 mph - N/A   Clear
4:20 AM 26.2 °F 20.7 °F 20.3 °F 78% 29.97 in 10.0 mi West 4.6 mph - N/A   Scattered Clouds
4:40 AM 25.7 °F 17.1 °F 20.1 °F 79% 29.96 in 10.0 mi North 8.1 mph - N/A   Scattered Clouds
5:00 AM 26.6 °F 17.5 °F 20.3 °F 77% 29.98 in 10.0 mi North 9.2 mph - N/A   Clear
5:20 AM 26.6 °F 21.2 °F 20.3 °F 77% 29.99 in 10.0 mi North 4.6 mph - N/A   Clear
5:40 AM 26.4 °F 20.9 °F 20.1 °F 77% 29.99 in 10.0 mi SW 4.6 mph - N/A   Clear
6:00 AM 26.1 °F 20.5 °F 20.1 °F 78% 29.99 in 10.0 mi North 4.6 mph - N/A   Clear
6:20 AM 25.3 °F - 19.9 °F 80% 30.00 in 10.0 mi Calm Calm - N/A   Clear
6:40 AM 25.9 °F 21.7 °F 20.1 °F 79% 30.01 in 10.0 mi WSW 3.5 mph - N/A   Clear
7:00 AM 25.2 °F 20.9 °F 19.8 °F 80% 30.01 in 10.0 mi North 3.5 mph - N/A   Clear
7:20 AM 23.7 °F - 19.4 °F 84% 30.02 in 10.0 mi Calm Calm - N/A   Clear
7:40 AM 22.1 °F - 18.5 °F 86% 30.02 in 10.0 mi Calm Calm - N/A   Clear
8:00 AM 23.5 °F 19.1 °F 19.0 °F 83% 30.03 in 10.0 mi North 3.5 mph - N/A   Clear
8:20 AM 22.5 °F - 19.2 °F 87% 30.03 in 7.0 mi Calm Calm - N/A   Clear
8:40 AM 26.1 °F 20.5 °F 20.3 °F 79% 30.03 in 10.0 mi North 4.6 mph - N/A   Clear
9:00 AM 26.6 °F 20.0 °F 20.5 °F 78% 30.03 in 10.0 mi North 5.8 mph - N/A   Clear
9:20 AM 27.1 °F 19.7 °F 20.5 °F 76% 30.04 in 10.0 mi North 6.9 mph - N/A   Clear
9:40 AM 28.2 °F 21.0 °F 21.2 °F 75% 30.04 in 10.0 mi North 6.9 mph - N/A   Clear
10:00 AM 28.4 °F 21.2 °F 20.7 °F 73% 30.04 in 10.0 mi South 6.9 mph - N/A   Clear
10:20 AM 29.3 °F 24.3 °F 21.4 °F 72% 30.04 in 10.0 mi WSW 4.6 mph - N/A   Clear
10:40 AM 30.0 °F 24.1 °F 21.6 °F 71% 30.03 in 10.0 mi WNW 5.8 mph - N/A   Clear
11:00 AM 31.3 °F - 22.1 °F 69% 30.03 in 10.0 mi Calm Calm - N/A   Clear
11:20 AM 32.0 °F 28.7 °F 21.7 °F 66% 30.02 in 10.0 mi SW 3.5 mph - N/A   Clear
11:40 AM 33.6 °F 30.6 °F 23.2 °F 66% 30.01 in 10.0 mi NW 3.5 mph - N/A   Clear
12:00 PM 35.1 °F - 22.1 °F 59% 30.00 in 10.0 mi Calm Calm - N/A   Clear
12:20 PM 36.3 °F 33.7 °F 23.4 °F 59% 29.99 in 10.0 mi West 3.5 mph - N/A   Clear
1:00 PM 39.0 °F 34.8 °F 23.2 °F 53% 29.96 in 10.0 mi North 5.8 mph - N/A   Clear
1:20 PM 41.0 °F 38.0 °F 22.6 °F 48% 29.94 in 10.0 mi North 4.6 mph - N/A   Clear
1:40 PM 42.1 °F 40.2 °F 18.7 °F 39% 29.94 in 10.0 mi North 3.5 mph - N/A   Clear
2:00 PM 42.8 °F 39.3 °F 18.1 °F 37% 29.93 in 10.0 mi North 5.8 mph - N/A   Clear
2:20 PM 43.9 °F 38.3 °F 19.4 °F 38% 29.92 in 10.0 mi North 10.4 mph - N/A   Clear
2:40 PM 44.6 °F 40.7 °F 20.5 °F 38% 29.91 in 10.0 mi North 6.9 mph - N/A   Clear
3:00 PM 44.2 °F 41.8 °F 19.8 °F 38% 29.90 in 10.0 mi North 4.6 mph - N/A   Clear
3:20 PM 44.8 °F - 21.0 °F 39% 29.90 in 10.0 mi Calm Calm - N/A   Clear
3:40 PM 44.6 °F 41.4 °F 21.2 °F 39% 29.90 in 10.0 mi North 5.8 mph - N/A   Clear
4:00 PM 45.0 °F 42.6 °F 21.6 °F 40% 29.90 in 10.0 mi North 4.6 mph - N/A   Clear
4:20 PM 44.6 °F 43.1 °F 21.7 °F 40% 29.89 in 10.0 mi North 3.5 mph - N/A   Clear
4:40 PM 44.6 °F - 22.5 °F 42% 29.89 in 10.0 mi Calm Calm - N/A   Clear
5:00 PM 44.2 °F - 22.5 °F 42% 29.90 in 10.0 mi Calm Calm - N/A   Clear
5:20 PM 42.8 °F - 23.4 °F 46% 29.90 in 10.0 mi Calm Calm - N/A   Clear
5:40 PM 36.5 °F - 25.3 °F 64% 29.90 in 10.0 mi Calm Calm - N/A   Clear
6:00 PM 33.6 °F 29.4 °F 26.1 °F 74% 29.90 in 10.0 mi West 4.6 mph - N/A   Clear
6:20 PM 32.2 °F - 25.9 °F 78% 29.89 in 10.0 mi Calm Calm - N/A   Clear
6:40 PM 31.3 °F - 25.7 °F 80% 29.90 in 10.0 mi Calm Calm - N/A   Clear
7:00 PM 30.2 °F - 24.6 °F 80% 29.90 in 10.0 mi Calm Calm - N/A   Clear
7:20 PM 30.9 °F - 25.5 °F 80% 29.91 in 10.0 mi Calm Calm - N/A   Clear
7:40 PM 29.3 °F - 24.3 °F 81% 29.91 in 10.0 mi Calm Calm - N/A   Clear
8:00 PM 28.6 °F - 24.4 °F 84% 29.90 in 10.0 mi Calm Calm - N/A   Clear
8:20 PM 28.2 °F - 24.3 °F 85% 29.91 in 10.0 mi Calm Calm - N/A   Clear
8:40 PM 26.4 °F - 23.2 °F 88% 29.92 in 10.0 mi Calm Calm - N/A   Clear
9:00 PM 26.6 °F - 23.5 °F 88% 29.91 in 10.0 mi Calm Calm - N/A   Clear
9:20 PM 26.2 °F 22.1 °F 22.6 °F 86% 29.92 in 10.0 mi NNW 3.5 mph - N/A   Clear
9:40 PM 27.3 °F - 23.7 °F 86% 29.90 in 10.0 mi Calm Calm - N/A   Clear
10:00 PM 27.3 °F - 23.4 °F 85% 29.91 in 10.0 mi Calm Calm - N/A   Scattered Clouds
10:20 PM 27.5 °F - 23.9 °F 86% 29.91 in 10.0 mi Calm Calm - N/A   Scattered Clouds
10:40 PM 26.4 °F - 22.8 °F 86% 29.91 in 10.0 mi Calm Calm - N/A   Clear
11:00 PM 26.1 °F - 22.8 °F 88% 29.90 in 10.0 mi Calm Calm - N/A   Clear
11:20 PM 27.5 °F - 24.1 °F 87% 29.90 in 10.0 mi Calm Calm - N/A   Clear
11:40 PM 28.0 °F - 24.6 °F 87% 29.89 in 10.0 mi Calm Calm - N/A   Clear